Voltar ao catálogo

STARLINK-34518

AtivoComunicaçõesVLEO
NORAD 64480·PAYLOAD·🇺🇸 United States

Lançado Jun 23, 2025 de Cape Canaveral Space Force Station

Loading…

Próximas Passagens (próximas 24 horas)

TLE

AtualizadoSource: CelesTrak SupGP

Época: Sep 15, 2026, 02:14 UTC

1 64480C 25133J   26258.09354167  .00048058  00000+0  14200-2 0  2585
2 64480  53.1569 314.8315 0001229  94.0504  68.6961 15.34364438    12

Acompanhe STARLINK-34518 em tempo real com AllMySat

Download on the App Store